STARLINK-32125 (60260 NORAD) Tracking and Keplerian Element Data

This shows tracking and keplerian element data for the satellite.

Feedback or suggestion? Click here.




ElementValue
Catalog60260
NameSTARLINK-32125
Epoch Orbit1311
Epoch Day286.40110242
Epoch Year2024
RAAN277.8988
Inclination53.1584
Eccentricity0.000141
Argument of Perigee99.7644
Mean Anonmoly260.352
Mean Motion15.39610888
Decay Rate0.00023753
L11 60260U 24131F 24286.40110242 .00023753 00000+0 60214-3 0 9996
L22 60260 53.1584 277.8988 0001410 99.7644 260.3520 15.39610888 13119



Live tracking and technical data element details for STARLINK-32125 (NORAD 60260). STARLINK-32125 can be tracked NOW for your location showing map with azimuth and elevation plus other details from your city location.







IsCatalogInMostPopularTable: catalog: 60260, numindb: 13
Update: records affected: 1



GetName: 60260 STARLINK-32125

Hit Count: updated at: Thu, 23 Jan 2025 13:33:26 GMT